Retour au catalogue

STARLINK-30918

ActifCommunicationsVLEO
NORAD 58365·PAYLOAD·🇺🇸 United States

Lancé Nov 18, 2023 depuis Cape Canaveral Space Force Station

Loading…

Prochains Passages (prochaines 24 heures)

TLE

FraisSource: CelesTrak SupGP

Époque: Sep 14, 2026, 22:04 UTC

1 58365C 23177Q   26257.91993056 -.00050853  00000+0 -18416-2 0  2572
2 58365  43.0019   2.0654 0001624 272.2420 179.8225 15.27608714    11

Suivez STARLINK-30918 en temps réel avec AllMySat

Download on the App Store